Satellite: AO-27
Catalog number: 22825
Epoch time:      06130.43119017
Element set:    0398
Inclination:      098.2794 deg
RA of node:       114.1176 deg
Eccentricity:    0.0009064
Arg of perigee:   019.5017 deg
Mean anomaly:     340.6494 deg
Mean motion:   14.29171746 rev/day
Decay rate:        2.1e-07 rev/day^2
Epoch rev:           65796
Checksum:              305

Satellite: IO-26
Catalog number: 22826
Epoch time:      06131.66740367
Element set:      87
Inclination:      098.2759 deg
RA of node:       116.5107 deg
Eccentricity:    0.0009511
Arg of perigee:   013.6933 deg
Mean anomaly:     346.4495 deg
Mean motion:   14.29415586 rev/day
Decay rate:        4.8e-07 rev/day^2
Epoch rev:           65821
Checksum:              320

Satellite: PO-28
Catalog number: 22829
Epoch time:      06130.97925791
Element set:     369
Inclination:      098.2654 deg
RA of node:       117.0599 deg
Eccentricity:    0.0009902
Arg of perigee:   351.3998 deg
Mean anomaly:     008.6999 deg
Mean motion:   14.30107894 rev/day
Decay rate:        9.9e-07 rev/day^2
Epoch rev:           65832
Checksum:              365

Satellite: TO-31
Catalog number: 25396
Epoch time:      06130.70417512
Element set:     524
Inclination:      098.4802 deg
RA of node:       192.3499 deg
Eccentricity:    0.0002187
Arg of perigee:   328.5560 deg
Mean anomaly:     031.5493 deg
Mean motion:   14.23703784 rev/day
Decay rate:        3.7e-07 rev/day^2
Epoch rev:           40701
Checksum:              289

Satellite: GO-32
Catalog number: 25397
Epoch time:      06130.71483407
Element set:    0011
Inclination:      098.4698 deg
RA of node:       189.1932 deg
Eccentricity:    0.0001308
Arg of perigee:   010.3736 deg
Mean anomaly:     349.7492 deg
Mean motion:   14.23103412 rev/day
Decay rate:       -6.1e-07 rev/day^2
Epoch rev:           40691
Checksum:              284

Satellite: UO-36
Catalog number: 25693
Epoch time:      06130.70262876
Element set:      36
Inclination:      064.5601 deg
RA of node:       357.8432 deg
Eccentricity:    0.0014102
Arg of perigee:   334.5548 deg
Mean anomaly:     025.4861 deg
Mean motion:   14.78594401 rev/day
Decay rate:       -9.7e-07 rev/day^2
Epoch rev:           38024
Checksum:              299

Satellite: MO-46
Catalog number: 26548
Epoch time:      06130.61554948
Element set:    0490
Inclination:      064.5583 deg
RA of node:       347.9482 deg
Eccentricity:    0.0050305
Arg of perigee:   252.5144 deg
Mean anomaly:     107.0479 deg
Mean motion:   14.82964280 rev/day
Decay rate:       2.25e-06 rev/day^2
Epoch rev:           30384
Checksum:              313

Satellite: NO-44
Catalog number: 26931
Epoch time:      06130.42697826
Element set:     300
Inclination:      067.0515 deg
RA of node:       104.9398 deg
Eccentricity:    0.0007301
Arg of perigee:   262.6345 deg
Mean anomaly:     097.3916 deg
Mean motion:   14.29438531 rev/day
Decay rate:       1.75e-06 rev/day^2
Epoch rev:           24053
Checksum:              295

Satellite: SO-50
Catalog number: 27607
Epoch time:      06130.70942383
Element set:      15
Inclination:      064.5580 deg
RA of node:       226.8472 deg
Eccentricity:    0.0047422
Arg of perigee:   160.3357 deg
Mean anomaly:     199.9580 deg
Mean motion:   14.71134945 rev/day
Decay rate:       1.51e-06 rev/day^2
Epoch rev:           18191
Checksum:              299

Satellite: CO-57
Catalog number: 27848
Epoch time:      06131.08142243
Element set:     722
Inclination:      098.7193 deg
RA of node:       139.2132 deg
Eccentricity:    0.0009693
Arg of perigee:   168.6120 deg
Mean anomaly:     191.5282 deg
Mean motion:   14.20261585 rev/day
Decay rate:        7.1e-07 rev/day^2
Epoch rev:           14837
Checksum:              300

Satellite: AO-51
Catalog number: 28375
Epoch time:      06131.19349245
Element set:     527
Inclination:      098.1681 deg
RA of node:       184.9119 deg
Eccentricity:    0.0084376
Arg of perigee:   320.3773 deg
Mean anomaly:     039.1268 deg
Mean motion:   14.40516878 rev/day
Decay rate:        3.5e-07 rev/day^2
Epoch rev:            9783
Checksum:              331

Satellite: XO-53
Catalog number: 28894
Epoch time:      06131.77063502
Element set:     544
Inclination:      098.1701 deg
RA of node:       030.6566 deg
Eccentricity:    0.0016759
Arg of perigee:   288.9584 deg
Mean anomaly:     070.9799 deg
Mean motion:   14.59464234 rev/day
Decay rate:       1.15e-06 rev/day^2
Epoch rev:            2866
Checksum:              339

Satellite: CO-56
Catalog number: 28941
Epoch time:      06131.06301155
Element set:      87
Inclination:      098.1774 deg
RA of node:       146.5013 deg
Eccentricity:    0.0285176
Arg of perigee:   238.2303 deg
Mean anomaly:     119.0862 deg
Mean motion:   15.23318701 rev/day
Decay rate:      9.227e-05 rev/day^2
Epoch rev:            1189
Checksum:              294

/EX
SB KEPS @ AMSAT  $ORB06131.W
Orbital Elements  06131.WEATHER

HR AMSAT ORBITAL ELEMENTS FOR WEATHER SATELLITES
FROM WA5QGD FORT WORTH,TX May 11, 2006
Send SUBSCRIBE KEPS/UNSUBSCRIBE KEPS to majordomo@amsat.org only
BID: ORB06131.W
TO ALL RADIO AMATEURS BT

Satellite: NOAA-10
Catalog number: 16969
Epoch time:      06131.48092666
Element set:     204
Inclination:      098.7599 deg
RA of node:       143.0365 deg
Eccentricity:    0.0011509
Arg of perigee:   257.7216 deg
Mean anomaly:     102.2694 deg
Mean motion:   14.27294183 rev/day
Decay rate:       1.27e-06 rev/day^2
Epoch rev:            2192
Checksum:              304

